Total_Precipitation_Accumulation
0.38 0.42 0.36 0.22 0.18 0.13 0.08 0.05 0.03 0.02 0.01 0.03 0.03 0.01 0.00 0.00 0.00 0.00 0.00 0.00 0.00 0.00 0.00 0.00 0.00 0.00 0.00 0.00 0.01 0.01 0.02 0.02 0.02 0.04 0.06 0.06 0.05 0.05 0.04 0.04 0.04 0.04 0.04 0.04
0.49 0.39 0.19 0.11 0.11 0.12 0.12 0.10 0.05 0.03 0.02 0.03 0.04 0.02 0.01 0.00 0.00 0.00 0.00 0.00 0.00 0.00 0.00 0.00 0.00 0.00 0.00 0.00 0.00 0.01 0.01 0.01 0.01 0.02 0.02 0.02 0.02 0.03 0.02 0.03 0.03 0.03 0.03 0.03
0.39 0.26 0.11 0.13 0.16 0.18 0.16 0.12 0.07 0.04 0.03 0.04 0.05 0.04 0.01 0.00 0.00 0.00 0.00 0.00 0.00 0.00 0.00 0.00 0.00 0.00 0.00 0.00 0.00 0.00 0.01 0.01 0.01 0.01 0.02 0.02 0.03 0.03 0.02 0.02 0.02 0.02 0.02 0.02
0.26 0.16 0.16 0.20 0.18 0.18 0.18 0.10 0.08 0.08 0.10 0.09 0.07 0.07 0.01 0.00 0.00 0.00 0.00 0.00 0.00 0.00 0.00 0.00 0.00 0.00 0.00 0.00 0.00 0.00 0.00 0.00 0.01 0.01 0.02 0.02 0.02 0.01 0.01 0.01 0.01 0.02 0.02 0.03
0.29 0.17 0.20 0.25 0.17 0.14 0.15 0.11 0.12 0.13 0.17 0.18 0.10 0.10 0.02 0.00 0.00 0.00 0.00 0.00 0.00 0.00 0.00 0.00 0.00 0.00 0.00 0.00 0.00 0.00 0.00 0.00 0.01 0.01 0.01 0.01 0.01 0.01 0.00 0.01 0.01 0.02 0.02 0.02
0.23 0.14 0.17 0.17 0.12 0.13 0.16 0.21 0.29 0.32 0.39 0.44 0.15 0.10 0.04 0.00 0.00 0.00 0.00 0.00 0.00 0.00 0.00 0.00 0.00 0.00 0.00 0.00 0.00 0.00 0.01 0.01 0.01 0.01 0.01 0.01 0.01 0.01 0.01 0.01 0.02 0.02 0.02 0.03
0.39 0.24 0.20 0.18 0.21 0.26 0.37 0.54 0.83 0.90 0.87 0.50 0.08 0.07 0.04 0.00 0.00 0.00 0.00 0.00 0.00 0.00 0.00 0.00 0.00 0.00 0.00 0.00 0.00 0.00 0.00 0.01 0.01 0.01 0.01 0.01 0.01 0.01 0.01 0.01 0.02 0.02 0.03 0.03
0.49 0.33 0.20 0.20 0.26 0.35 0.43 0.52 0.65 0.63 0.42 0.14 0.03 0.03 0.01 0.00 0.00 0.00 0.00 0.00 0.00 0.00 0.00 0.00 0.00 0.00 0.00 0.00 0.00 0.00 0.00 0.00 0.01 0.00 0.01 0.01 0.01 0.01 0.01 0.01 0.02 0.03 0.04 0.04
0.51 0.31 0.13 0.11 0.14 0.22 0.33 0.39 0.31 0.33 0.23 0.12 0.06 0.02 0.01 0.00 0.00 0.00 0.00 0.00 0.00 0.00 0.00 0.00 0.00 0.00 0.00 0.00 0.00 0.00 0.00 0.00 0.00 0.00 0.01 0.01 0.01 0.01 0.01 0.01 0.02 0.02 0.03 0.03
0.59 0.40 0.18 0.13 0.19 0.24 0.29 0.34 0.39 0.55 0.45 0.21 0.08 0.02 0.01 0.00 0.00 0.00 0.00 0.00 0.00 0.00 0.00 0.00 0.00 0.00 0.00 0.00 0.00 0.00 0.00 0.00 0.00 0.00 0.00 0.01 0.01 0.01 0.01 0.02 0.02 0.02 0.02 0.03
0.58 0.53 0.32 0.28 0.32 0.30 0.29 0.40 0.59 0.63 0.39 0.22 0.11 0.03 0.01 0.00 0.00 0.00 0.01 0.01 0.00 0.00 0.00 0.00 0.00 0.00 0.00 0.00 0.00 0.00 0.01 0.01 0.01 0.01 0.00 0.01 0.01 0.01 0.01 0.02 0.03 0.04 0.03 0.04
0.59 0.65 0.47 0.33 0.25 0.19 0.25 0.33 0.43 0.56 0.42 0.16 0.10 0.05 0.02 0.01 0.00 0.00 0.01 0.01 0.01 0.00 0.00 0.00 0.00 0.00 0.00 0.00 0.01 0.01 0.01 0.01 0.01 0.00 0.00 0.00 0.01 0.01 0.03 0.05 0.06 0.07 0.07 0.08
0.68 0.83 0.74 0.58 0.49 0.40 0.40 0.33 0.33 0.35 0.33 0.21 0.12 0.05 0.03 0.02 0.01 0.00 0.00 0.01 0.01 0.01 0.01 0.00 0.00 0.00 0.00 0.01 0.01 0.02 0.02 0.01 0.01 0.00 0.01 0.01 0.01 0.02 0.04 0.06 0.11 0.15 0.20 0.22
0.64 0.75 0.68 0.67 0.60 0.53 0.48 0.34 0.29 0.36 0.38 0.24 0.11 0.05 0.02 0.02 0.02 0.02 0.01 0.00 0.01 0.01 0.01 0.01 0.00 0.00 0.01 0.01 0.02 0.02 0.02 0.01 0.01 0.01 0.01 0.01 0.02 0.04 0.07 0.10 0.16 0.25 0.35 0.42
0.62 0.61 0.34 0.23 0.24 0.28 0.28 0.21 0.21 0.26 0.27 0.17 0.05 0.03 0.02 0.02 0.02 0.03 0.02 0.01 0.01 0.01 0.01 0.02 0.01 0.01 0.02 0.02 0.02 0.02 0.01 0.01 0.02 0.01 0.02 0.03 0.05 0.11 0.17 0.20 0.24 0.32 0.41 0.49
0.63 0.57 0.30 0.16 0.13 0.18 0.20 0.14 0.13 0.12 0.10 0.08 0.04 0.03 0.03 0.02 0.02 0.02 0.03 0.03 0.02 0.02 0.02 0.02 0.02 0.03 0.04 0.03 0.03 0.02 0.02 0.03 0.02 0.02 0.03 0.06 0.12 0.19 0.26 0.30 0.33 0.40 0.46 0.49
0.57 0.52 0.41 0.26 0.15 0.24 0.28 0.15 0.11 0.09 0.06 0.04 0.05 0.04 0.03 0.03 0.02 0.02 0.03 0.05 0.05 0.03 0.03 0.02 0.03 0.04 0.04 0.04 0.04 0.04 0.03 0.03 0.02 0.04 0.07 0.10 0.14 0.18 0.21 0.24 0.29 0.34 0.32 0.28
0.39 0.44 0.48 0.34 0.31 0.49 0.26 0.10 0.08 0.08 0.07 0.06 0.05 0.03 0.03 0.03 0.03 0.02 0.02 0.04 0.04 0.05 0.06 0.05 0.05 0.04 0.03 0.03 0.03 0.03 0.02 0.01 0.02 0.04 0.07 0.10 0.13 0.16 0.15 0.14 0.18 0.21 0.18 0.18
0.21 0.35 0.52 0.45 0.41 0.27 0.12 0.08 0.11 0.12 0.14 0.09 0.07 0.04 0.02 0.03 0.04 0.04 0.05 0.03 0.05 0.05 0.06 0.06 0.06 0.04 0.03 0.02 0.02 0.02 0.01 0.01 0.02 0.04 0.05 0.07 0.11 0.14 0.12 0.10 0.11 0.14 0.15 0.14
0.23 0.35 0.58 0.50 0.40 0.22 0.12 0.06 0.08 0.13 0.19 0.09 0.06 0.05 0.04 0.05 0.14 0.11 0.09 0.06 0.05 0.03 0.03 0.04 0.04 0.02 0.01 0.01 0.01 0.01 0.00 0.00 0.01 0.02 0.03 0.03 0.04 0.06 0.05 0.04 0.04 0.05 0.06 0.07
0.47 0.59 0.63 0.46 0.30 0.13 0.08 0.07 0.10 0.25 0.29 0.12 0.07 0.06 0.06 0.10 0.18 0.15 0.09 0.06 0.05 0.03 0.02 0.02 0.02 0.02 0.01 0.01 0.00 0.00 0.00 0.00 0.00 0.00 0.00 0.00 0.01 0.01 0.01 0.02 0.02 0.03 0.03 0.04
0.39 0.49 0.47 0.40 0.33 0.16 0.08 0.12 0.24 0.27 0.13 0.08 0.06 0.04 0.05 0.05 0.04 0.04 0.04 0.04 0.03 0.02 0.02 0.02 0.01 0.01 0.00 0.00 0.00 0.00 0.00 0.00 0.00 0.00 0.00 0.00 0.01 0.01 0.01 0.02 0.03 0.03 0.03 0.04
0.25 0.30 0.33 0.30 0.21 0.12 0.08 0.13 0.16 0.11 0.07 0.06 0.06 0.05 0.06 0.04 0.02 0.02 0.02 0.03 0.02 0.02 0.02 0.01 0.01 0.00 0.00 0.00 0.00 0.00 0.00 0.00 0.00 0.00 0.00 0.01 0.01 0.01 0.02 0.03 0.03 0.04 0.05 0.07
0.16 0.15 0.17 0.13 0.08 0.05 0.05 0.06 0.07 0.07 0.06 0.04 0.05 0.07 0.06 0.04 0.02 0.01 0.01 0.02 0.03 0.02 0.01 0.01 0.01 0.00 0.00 0.00 0.00 0.00 0.00 0.00 0.00 0.00 0.01 0.01 0.01 0.02 0.02 0.03 0.04 0.05 0.08 0.19
0.13 0.13 0.13 0.08 0.04 0.03 0.03 0.04 0.04 0.04 0.03 0.03 0.03 0.04 0.04 0.03 0.02 0.01 0.01 0.01 0.02 0.02 0.01 0.01 0.01 0.00 0.00 0.00 0.00 0.00 0.00 0.00 0.00 0.01 0.01 0.01 0.02 0.03 0.04 0.04 0.04 0.07 0.10 0.27
0.10 0.11 0.12 0.08 0.04 0.04 0.03 0.02 0.02 0.03 0.03 0.03 0.03 0.03 0.02 0.02 0.02 0.01 0.01 0.01 0.01 0.01 0.01 0.01 0.01 0.00 0.00 0.00 0.00 0.00 0.00 0.00 0.01 0.02 0.02 0.03 0.04 0.04 0.04 0.05 0.05 0.06 0.08 0.15